Location: Omaha
(41.2590°N, 95.9380°W)
Time: 05:13:50
(UTC-06:00)

Vanguard 2 Rocket - Visible Passes

Search period start: 16 December 2017 00:00
Search period end: 26 December 2017 00:00
Orbit: 556 x 3326 km, 32.9° (Epoch: 15 December)

Date Brightness Start Highest point End Pass type
(mag) Time Alt. Az. Time Alt. Az. Time Alt. Az.
16 Dec 9.3 17:55:16 10° SSW 18:04:00 38° SSE 18:16:09 14° E visible
16 Dec 9.1 20:06:36 10° WSW 20:18:41 62° S 20:21:56 55° SE visible
16 Dec 9.9 22:20:16 10° W 22:27:44 38° WSW 22:27:44 38° WSW visible
17 Dec11.101:14:22SE01:14:22SE00:33:32Wvisible
17 Dec 9.0 19:07:37 10° SW 19:17:59 55° SSE 19:25:42 34° ESE visible
17 Dec 9.3 21:20:26 10° W 21:31:30 58° SW 21:31:30 58° SW visible
17 Dec 10.6 23:35:12 10° W 23:37:18 16° W 23:37:18 16° W visible
18 Dec 9.1 18:09:03 10° SW 18:17:49 46° SSE 18:29:28 17° E visible
18 Dec 9.1 20:20:59 10° WSW 20:32:56 63° S 20:35:16 59° SSE visible
18 Dec 10.0 22:34:49 10° W 22:41:05 32° WSW 22:41:05 32° WSW visible
19 Dec 9.2 17:10:56 10° SSW 17:18:12 34° SSE 17:29:55 10° E visible
19 Dec 9.0 19:21:53 10° WSW 19:32:10 59° S 19:39:04 38° ESE visible
19 Dec 9.4 21:34:56 10° W 21:44:52 52° SW 21:44:52 52° SW visible
19 Dec 10.8 23:50:04 10° W 23:50:41 12° W 23:50:41 12° W visible
20 Dec 8.9 18:23:09 10° SW 18:31:53 52° SSE 18:42:53 19° E visible
20 Dec 9.1 20:35:27 10° W 20:47:15 61° S 20:48:42 59° SSE visible
20 Dec 10.2 22:49:32 10° W 22:54:30 26° WSW 22:54:30 26° WSW visible
21 Dec 8.9 17:24:46 10° SW 17:32:06 42° SSE 17:44:30 10° E visible
21 Dec 8.9 19:36:18 10° WSW 19:46:27 60° S 19:52:33 41° ESE visible
21 Dec 9.6 21:49:33 10° W 21:58:21 44° SW 21:58:21 44° SW visible
22 Dec 8.8 18:37:28 10° WSW 18:46:06 56° S 18:56:26 21° ESE visible
22 Dec 9.2 20:50:01 10° W 21:01:33 55° S 21:02:14 55° S visible
22 Dec 10.4 23:04:29 10° W 23:08:04 20° WSW 23:08:04 20° WSW visible
23 Dec 8.7 17:38:54 10° SW 17:46:12 49° SSE 17:58:56 10° E visible
23 Dec 8.9 19:50:49 10° W 20:00:48 57° S 20:06:12 42° SE visible
23 Dec 9.8 22:04:19 10° W 22:12:01 36° WSW 22:12:01 36° WSW visible
24 Dec 8.7 18:51:55 10° WSW 19:00:26 57° S 19:10:12 23° ESE visible
24 Dec 9.3 21:04:40 10° W 21:15:51 48° SSW 21:16:02 48° SSW visible
24 Dec 10.6 23:19:58 10° W 23:21:51 14° WSW 23:21:51 14° WSW visible
25 Dec 8.6 17:53:15 10° WSW 18:00:29 52° S 18:13:15 10° E visible
25 Dec 9.1 20:05:25 10° W 20:15:10 51° S 20:20:07 40° SSE visible
25 Dec 10.0 22:19:24 10° W 22:25:57 28° WSW 22:25:57 28° WSW visible
